| time (UTC) | temp F | wind direction | speed knots | gust knots | rain 1hr in | rain 24hr in | rain mn in | humidity % | barometer mb |
| 20260506213010 | 61 | 210 | 6.1 | 12.2 | 0.00 | 0.01 | 0.01 | 83 | 1009.0 |
| 20260506211521 | 61 | 165 | 6.1 | 12.2 | 0.00 | 0.01 | 0.01 | 81 | 1009.1 |
| 20260506210028 | 62 | 205 | 7.8 | 15.6 | 0.00 | 0.01 | 0.01 | 81 | 1008.9 |
| 20260506204523 | 61 | 199 | 5.2 | 11.3 | 0.00 | 0.01 | 0.01 | 83 | 1008.7 |
| 20260506203035 | 61 | 216 | 5.2 | 14.8 | 0.00 | 0.01 | 0.01 | 84 | 1008.9 |
| 20260506201514 | 60 | 148 | 6.1 | 14.8 | 0.00 | 0.01 | 0.01 | 85 | 1008.9 |
| 20260506200015 | 60 | 216 | 6.1 | 13.9 | 0.00 | 0.01 | 0.01 | 85 | 1009.1 |
| 20260506194521 | 60 | 186 | 7.0 | 14.8 | 0.00 | 0.01 | 0.01 | 86 | 1009.1 |
| 20260506193023 | 60 | 195 | 8.7 | 18.2 | 0.00 | 0.01 | 0.01 | 85 | 1009.6 |
| 20260506191528 | 60 | 207 | 9.6 | 19.1 | 0.00 | 0.01 | 0.01 | 86 | 1009.7 |
| 20260506190013 | 60 | 240 | 9.6 | 20.0 | 0.00 | 0.01 | 0.01 | 87 | 1009.7 |
| 20260506184522 | 59 | 224 | 8.7 | 16.5 | 0.01 | 0.01 | 0.01 | 89 | 1010.1 |
| 20260506183025 | 58 | 198 | 7.8 | 19.1 | 0.01 | 0.01 | 0.01 | 89 | 1010.2 |
| 20260506181504 | 58 | 207 | 7.0 | 13.0 | 0.01 | 0.01 | 0.01 | 89 | 1010.1 |
| 20260506180012 | 58 | 210 | 9.6 | 19.1 | 0.01 | 0.01 | 0.01 | 88 | 1010.6 |
| 20260506174504 | 58 | 238 | 7.8 | 15.6 | 0.00 | 0.00 | 0.00 | 87 | 1010.8 |
| 20260506173013 | 59 | 216 | 7.8 | 14.8 | 0.00 | 0.00 | 0.00 | 87 | 1010.9 |
| 20260506171511 | 59 | 188 | 6.1 | 13.9 | 0.00 | 0.00 | 0.00 | 86 | 1010.9 |
| 20260506170005 | 59 | 225 | 7.0 | 17.4 | 0.00 | 0.00 | 0.00 | 84 | 1011.2 |
| 20260506164508 | 59 | 219 | 7.8 | 16.5 | 0.00 | 0.00 | 0.00 | 84 | 1011.5 |
| 20260506163008 | 60 | 223 | 8.7 | 15.6 | 0.00 | 0.00 | 0.00 | 83 | 1011.8 |
| 20260506161506 | 60 | 202 | 8.7 | 16.5 | 0.00 | 0.00 | 0.00 | 82 | 1011.8 |
| 20260506160008 | 60 | 203 | 8.7 | 16.5 | 0.00 | 0.00 | 0.00 | 82 | 1012.0 |
| 20260506154507 | 60 | 214 | 7.8 | 16.5 | 0.00 | 0.00 | 0.00 | 81 | 1012.1 |
| 20260506153008 | 61 | 215 | 7.0 | 16.5 | 0.00 | 0.00 | 0.00 | 80 | 1012.3 |
| 20260506151509 | 62 | 219 | 7.8 | 15.6 | 0.00 | 0.00 | 0.00 | 79 | 1012.1 |
| 20260506150008 | 61 | 209 | 7.0 | 15.6 | 0.00 | 0.00 | 0.00 | 81 | 1012.3 |
| 20260506144508 | 61 | 192 | 7.8 | 15.6 | 0.00 | 0.00 | 0.00 | 81 | 1012.5 |
| 20260506143017 | 61 | 219 | 8.7 | 16.5 | 0.00 | 0.00 | 0.00 | 81 | 1012.4 |
| 20260506141512 | 61 | 207 | 10.4 | 16.5 | 0.00 | 0.00 | 0.00 | 81 | 1012.4 |
| 20260506140014 | 60 | 230 | 9.6 | 14.8 | 0.00 | 0.00 | 0.00 | 83 | 1012.4 |
| 20260506134513 | 59 | 202 | 7.8 | 15.6 | 0.00 | 0.00 | 0.00 | 84 | 1012.5 |
| 20260506133009 | 60 | 208 | 6.1 | 14.8 | 0.00 | 0.00 | 0.00 | 83 | 1012.7 |
| 20260506131516 | 60 | 240 | 8.7 | 16.5 | 0.00 | 0.00 | 0.00 | 83 | 1012.9 |
| 20260506130012 | 60 | 191 | 8.7 | 15.6 | 0.00 | 0.00 | 0.00 | 84 | 1012.9 |
| 20260506124516 | 59 | 200 | 7.8 | 16.5 | 0.00 | 0.00 | 0.00 | 85 | 1012.8 |
| 20260506123016 | 58 | 204 | 7.8 | 20.0 | 0.00 | 0.00 | 0.00 | 86 | 1012.8 |
| 20260506121513 | 58 | 219 | 10.4 | 23.5 | 0.00 | 0.00 | 0.00 | 86 | 1012.8 |
| 20260506120019 | 58 | 227 | 7.8 | 15.6 | 0.00 | 0.00 | 0.00 | 86 | 1012.5 |
| 20260506114517 | 58 | 195 | 6.1 | 16.5 | 0.00 | 0.00 | 0.00 | 88 | 1012.6 |
| 20260506113018 | 57 | 168 | 6.1 | 15.6 | 0.00 | 0.00 | 0.00 | 88 | 1012.5 |
| 20260506111521 | 57 | 229 | 7.0 | 15.6 | 0.00 | 0.00 | 0.00 | 89 | 1012.6 |
| 20260506110015 | 57 | 201 | 7.8 | 14.8 | 0.00 | 0.00 | 0.00 | 89 | 1012.6 |
| 20260506104518 | 57 | 205 | 7.8 | 17.4 | 0.00 | 0.00 | 0.00 | 89 | 1012.7 |
| 20260506103021 | 57 | 205 | 7.8 | 14.8 | 0.00 | 0.00 | 0.00 | 89 | 1012.5 |
| 20260506101533 | 57 | 200 | 9.6 | 16.5 | 0.00 | 0.00 | 0.00 | 89 | 1012.4 |
| 20260506100023 | 57 | 196 | 9.6 | 17.4 | 0.00 | 0.00 | 0.00 | 89 | 1012.4 |
| 20260506094526 | 57 | 178 | 7.8 | 17.4 | 0.00 | 0.00 | 0.00 | 89 | 1012.2 |
| 20260506093033 | 57 | 198 | 7.8 | 17.4 | 0.00 | 0.00 | 0.00 | 89 | 1012.2 |
| 20260506091525 | 57 | 207 | 7.0 | 16.5 | 0.00 | 0.00 | 0.00 | 89 | 1012.5 |
| 20260506090011 | 57 | 198 | 8.7 | 14.8 | 0.00 | 0.00 | 0.00 | 89 | 1012.7 |
| 20260506084516 | 56 | 204 | 7.8 | 16.5 | 0.00 | 0.00 | 0.00 | 89 | 1012.8 |
| 20260506083022 | 56 | 215 | 6.1 | 13.9 | 0.00 | 0.00 | 0.00 | 89 | 1012.9 |
| 20260506081532 | 56 | 215 | 7.0 | 15.6 | 0.00 | 0.00 | 0.00 | 89 | 1012.8 |
| 20260506073033 | 57 | 202 | 6.1 | 16.5 | 0.00 | 0.00 | 0.00 | 88 | 1012.8 |
| 20260506071524 | 57 | 220 | 8.7 | 18.2 | 0.00 | 0.00 | 0.00 | 88 | 1013.0 |
| 20260506061520 | 57 | 191 | 7.8 | 19.1 | 0.00 | 0.00 | 0.00 | 86 | 1013.0 |
| 20260506044551 | 58 | 213 | 10.4 | 19.1 | 0.00 | 0.00 | 0.00 | 84 | 1013.6 |
| 20260506043026 | 58 | 207 | 10.4 | 18.2 | 0.00 | 0.00 | 0.00 | 84 | 1013.5 |
| 20260506041516 | 58 | 184 | 8.7 | 20.9 | 0.00 | 0.00 | 0.00 | 83 | 1013.6 |
| 20260506040017 | 58 | 190 | 8.7 | 19.1 | 0.00 | 0.00 | 0.00 | 83 | 1013.5 |
| 20260506034543 | 58 | 202 | 8.7 | 17.4 | 0.00 | 0.00 | 0.00 | 83 | 1013.5 |
| 20260506031528 | 58 | 198 | 7.8 | 16.5 | 0.00 | 0.00 | 0.00 | 83 | 1013.7 |
| 20260506030028 | 58 | 225 | 7.8 | 17.4 | 0.00 | 0.00 | 0.00 | 83 | 1013.7 |
| 20260506024520 | 58 | 192 | 9.6 | 14.8 | 0.00 | 0.00 | 0.00 | 83 | 1013.7 |
| 20260506023025 | 58 | 227 | 7.0 | 17.4 | 0.00 | 0.00 | 0.00 | 83 | 1013.7 |
| 20260506021525 | 58 | 146 | 8.7 | 17.4 | 0.00 | 0.00 | 0.00 | 82 | 1013.7 |
| 20260506020010 | 58 | 208 | 7.0 | 20.0 | 0.00 | 0.00 | 0.00 | 82 | 1013.7 |
| 20260506014520 | 58 | 217 | 7.8 | 15.6 | 0.00 | 0.00 | 0.00 | 82 | 1013.6 |
| 20260506013019 | 58 | 153 | 8.7 | 17.4 | 0.00 | 0.00 | 0.00 | 82 | 1013.4 |
| 20260506011507 | 58 | 210 | 7.0 | 15.6 | 0.00 | 0.00 | 0.00 | 82 | 1013.4 |
| 20260506010012 | 57 | 191 | 8.7 | 16.5 | 0.00 | 0.00 | 0.00 | 83 | 1013.3 |
| 20260506004529 | 58 | 196 | 7.0 | 16.5 | 0.00 | 0.00 | 0.00 | 83 | 1013.2 |
| 20260506003035 | 58 | 196 | 7.8 | 17.4 | 0.00 | 0.00 | 0.00 | 82 | 1013.1 |
| 20260506001523 | 58 | 224 | 7.0 | 18.2 | 0.00 | 0.00 | 0.00 | 82 | 1012.9 |
| 20260506000005 | 58 | 217 | 7.8 | 16.5 | 0.00 | 0.00 | 0.00 | 80 | 1012.8 |
| 20260505234510 | 59 | 188 | 9.6 | 19.1 | 0.00 | 0.00 | 0.00 | 80 | 1012.8 |
| 20260505233012 | 59 | 189 | 10.4 | 18.2 | 0.00 | 0.00 | 0.00 | 78 | 1012.7 |
| 20260505231521 | 61 | 192 | 9.6 | 18.2 | 0.00 | 0.00 | 0.00 | 75 | 1012.6 |
| 20260505230021 | 62 | 214 | 9.6 | 23.5 | 0.00 | 0.00 | 0.00 | 71 | 1012.5 |
| 20260505224508 | 63 | 225 | 9.6 | 20.0 | 0.00 | 0.00 | 0.00 | 70 | 1012.4 |
| 20260505223010 | 63 | 194 | 9.6 | 20.0 | 0.00 | 0.00 | 0.00 | 69 | 1012.2 |
| 20260505221519 | 63 | 186 | 8.7 | 19.1 | 0.00 | 0.00 | 0.00 | 68 | 1012.3 |
| 20260505220027 | 64 | 212 | 10.4 | 19.1 | 0.00 | 0.00 | 0.00 | 67 | 1012.1 |
| 20260505214529 | 64 | 200 | 10.4 | 25.2 | 0.00 | 0.00 | 0.00 | 67 | 1011.9 |